Regional Weather Roundup
Issued by NWS Newport/Morehead, NC

Current Version | Previous Version | Text Only | Print | Product List | Glossary Off
Versions: 1 2 3 4 5 6 7 8 9 10 11 12 13 14 15 16 17 18 19 20 21 22 23 24 25 26 27 28 29 30 31 32 33 34 35 36 37 38 39 40 41 42 43 44 45 46 47 48 49 50
000 ASUS42 KMHX 301113 RWRMHX WEATHER ROUNDUP FOR EASTERN NORTH CAROLINA NATIONAL WEATHER SERVICE NEWPORT/MOREHEAD CITY NC 700 AM EDT SUN AUG 30 2015 NOTE: "FAIR" INDICATES FEW OR NO CLOUDS BELOW 12,000 FEET WITH NO SIGNIFICANT WEATHER AND/OR OBSTRUCTIONS TO VISIBILITY NCZ015>017-031-032-045>047-102-103-301200- NORTH COAST CITY SKY/WX TMP DP RH WIND PRES REMARKS EDENTON PTCLDY 64 62 94 CALM 30.14R ELIZABETH CITY CLEAR 65 63 93 W5 30.14R KITTY HAWK PTSUNNY 74 70 88 CALM 30.11R MANTEO PTCLDY 73 71 93 N6 30.12R $$ NCZ045>047-081-094-103-104-301200- CENTRAL COAST CITY SKY/WX TMP DP RH WIND PRES REMARKS FRISCO CLOUDY 76 73 91 VRB3 30.11R SWANQUARTER NOT AVBL $$ NCZ095-097-098-100-101-301200- SOUTHERN COAST CITY SKY/WX TMP DP RH WIND PRES REMARKS BEAUFORT PTCLDY 70 69 97 N3 30.13R CEDAR ISLAND NOT AVBL JACKSONVILLE PTCLDY 68 64 87 CALM 30.13R PINEY ISLAND SUNNY N/A N/A N/A N7 30.13R WILMINGTON MOCLDY 70 66 87 N3 30.13R $$ NCZ011>013-027>030-043-044-078>080-089-090>093-098-301200- COASTAL PLAIN CITY SKY/WX TMP DP RH WIND PRES REMARKS AHOSKIE CLOUDY 61 60 96 CALM 30.15R CLINTON PTCLDY 64 64 100 CALM 30.16R ELIZABETHTOWN PTCLDY 66 65 97 CALM 30.14R GOLDSBORO PTCLDY 64 62 94 E2 30.14R GREENVILLE RAIN 63 63 100 CALM 30.16R VSB 1/2 HAVELOCK PTCLDY 70 67 90 N5 30.14R KENANSVILLE N/A 63 62 97 CALM 30.16R FOG KINSTON CLEAR 63 61 94 CALM 30.16R NEW BERN CLEAR 67 65 93 CALM 30.15R RICHLANDS PTCLDY 64 59 82 CALM 30.14S ROCKY MOUNT PTCLDY 63 61 93 CALM 30.16R FOG WASHINGTON CLEAR 63 62 97 CALM 30.14S WHITEVILLE MOCLDY 68 65 93 CALM 30.13R $$ AMZ130-135-150-152-154-156-158-170-250-252-270-ANZ085-086-088-633-658-670-301200- MARINE OBSERVATIONS STATION/POSITION TIME TEMP WIND PRES WAVE SWELL AIR SEA DIR/SP/G HT/PER HT/PER (UTC) (F) (DEG/KT/KT) (MB) (FT/S) (FT/S) CHESAPEAKE LIGHT 1100 76 360/ 5/ 5 1021.0 64 E VA BEACH 1050 78 77 30/ 10/ 10 1019.0 4/10 3/10 DUCK NOT AVBL 2 E DUCK 1011 78 N/A 4/10 2/11 OREGON INLET NOT AVBL 13E OREGON INLT 1100 78 N/A 4/11 2/11 HATTERAS CG NOT AVBL DIAMOND BUOY 1050 78 82 340/ 6/ 8 1019.3 3/10 3/10 CAPE LOOKOUT 1100 74 350/ 9/ 10 1019.9 BEAUFORT LAB NOT AVBL 30 SE NEW RVR IN 1008 78 81 40/ 6/ 8 1019.6 30 SE NEW RVR IN 1025 81 N/A 4/10 2/11 27 SE WRIGHTSVLE 1000 76 81 50/ 4/ 6 N/A 5 SE WRIGHTSVLE 1008 80 82 60/ 4/ 8 1019.4 225 S CAPE HAT 1050 83 84 240/ 6/ 8 1020.0 5/10 5/10 41 SE CHARLESTON 1050 78 85 310/ 6/ 8 1018.6 4/10 3/10 $$

USA.gov is the U.S. government's official web portal to all federal, state and local government web resources and services.